Theta_e
305 305 304 305 305 305 304 304 303 303 303 299 296 298 294 293 294 301 302 303 301 294 287 287 286 284 287 291 289 291 290 290 291 290 292 290 292 292 292 291 289 290 289 287 287 287 284 286 286 287 289 290 293 296 292 296 293 293 291 289 291 293 284 281 283 286 288 289 291 291 290 289 286 287 288 287 284 285 283 282 284 281 283 281 281 277 282
305 304 304 305 306 305 304 303 303 303 302 299 298 294 290 289 290 296 302 301 300 291 282 283 283 285 287 286 286 289 288 289 289 289 290 289 291 290 286 286 292 289 290 288 284 288 281 289 288 287 289 289 296 296 295 295 291 291 290 287 292 284 285 283 279 279 281 283 285 286 287 287 286 286 287 287 288 287 288 288 290 281 281 282 280 275 281
304 304 304 305 305 304 304 303 303 303 303 302 299 294 292 291 291 290 295 300 299 289 288 286 283 283 283 283 284 287 288 291 291 289 288 291 291 289 281 285 290 289 289 286 287 288 286 284 291 289 287 290 294 293 294 294 292 293 294 295 294 286 285 282 276 273 270 270 272 275 280 283 287 288 287 288 286 286 286 281 283 278 282 284 280 280 287
304 304 305 305 305 304 304 303 303 303 303 302 299 294 294 289 286 290 291 293 295 292 293 289 286 283 282 282 284 285 285 288 289 289 289 291 290 289 289 285 287 284 284 282 284 283 288 286 286 287 288 290 291 293 293 292 293 294 296 296 294 286 287 285 283 280 278 280 282 285 286 285 282 284 286 287 288 289 289 287 282 279 283 282 284 285 285
304 304 305 305 305 304 304 303 302 302 302 302 299 295 293 291 287 285 284 289 290 287 287 287 287 283 285 281 284 282 285 286 287 290 285 290 288 288 288 287 281 280 281 282 282 283 283 289 287 286 287 290 291 294 293 293 294 296 295 297 293 288 284 285 285 284 284 285 285 286 285 283 284 284 284 287 287 288 287 283 282 288 284 279 286 289 286
304 304 304 305 304 304 304 303 303 302 302 301 299 293 291 287 286 289 289 284 283 283 283 287 286 286 285 282 285 284 284 284 282 286 288 288 290 286 288 289 286 285 281 283 280 284 284 285 284 289 289 289 291 291 293 292 295 296 294 298 293 287 282 285 285 284 285 286 286 287 286 286 285 285 285 285 286 287 285 286 288 288 283 280 288 289 287
304 304 304 305 305 304 303 303 303 302 301 301 297 293 291 290 289 288 291 285 286 285 286 287 286 285 283 283 284 282 283 282 285 284 284 286 286 288 282 284 286 283 285 283 281 283 282 283 288 287 288 288 288 287 291 293 294 295 294 295 296 290 285 286 286 285 286 287 287 288 286 287 287 287 287 287 287 287 288 288 289 288 287 289 290 291 290
304 304 304 305 305 304 303 303 302 302 301 300 296 292 290 288 288 286 291 289 287 287 286 285 285 283 286 283 284 284 283 281 285 286 284 281 285 288 286 286 287 287 286 284 281 282 285 285 283 289 288 287 288 288 289 291 293 295 293 293 295 290 285 288 285 284 283 286 287 286 285 285 285 287 288 288 288 288 289 289 289 289 288 289 289 289 289
304 304 304 305 305 304 304 303 303 301 301 296 294 292 294 293 295 293 287 284 285 286 285 285 283 282 284 283 284 284 284 283 285 284 287 285 284 287 285 287 286 287 286 283 282 285 287 288 288 289 289 284 290 288 290 293 292 292 291 293 293 291 286 290 286 282 282 285 285 286 286 285 285 285 287 287 287 286 288 287 290 288 287 289 289 287 288
304 304 305 305 305 304 304 304 303 301 301 296 295 290 296 296 297 296 290 284 288 286 285 284 283 281 285 285 285 284 284 285 285 282 287 288 288 288 287 287 286 285 285 285 289 292 291 290 291 291 291 292 291 291 291 292 289 289 290 294 290 290 288 285 285 281 281 286 286 285 284 284 282 283 286 288 289 289 291 291 292 292 292 288 285 287 293
304 304 305 304 305 305 304 304 303 302 300 295 293 292 294 291 290 291 291 284 285 285 285 284 283 285 286 287 285 286 285 285 285 280 282 287 288 290 289 287 285 283 285 289 295 294 293 293 292 293 292 291 290 291 291 291 291 290 288 289 291 291 289 286 288 280 281 285 285 284 281 276 278 290 292 292 290 290 288 289 291 293 293 291 294 294 297
304 304 305 305 305 305 305 305 303 302 301 300 298 294 295 296 294 292 288 284 284 285 284 284 285 286 284 286 285 284 284 285 285 287 283 285 287 289 288 287 287 282 292 296 295 294 294 296 293 293 291 291 290 290 290 289 290 292 290 288 289 290 289 286 288 282 281 285 284 280 276 278 290 290 291 293 293 293 292 292 294 294 295 295 294 295 296
304 304 305 304 305 305 305 305 303 302 302 301 299 294 297 299 294 291 289 286 283 285 284 285 287 286 287 287 286 286 287 287 287 287 287 286 286 288 289 288 287 290 295 293 292 291 289 290 292 290 291 291 293 292 291 290 291 294 293 290 290 287 286 286 284 285 285 282 281 274 278 289 293 292 292 292 293 288 292 291 294 295 296 297 295 297 298
304 304 305 305 304 304 305 305 303 302 302 302 298 297 298 298 292 291 289 285 284 286 286 285 286 286 286 286 286 286 286 286 287 288 285 288 286 287 290 290 292 295 294 293 290 290 289 289 287 288 290 292 291 290 292 294 295 295 295 292 292 290 289 286 284 287 280 282 281 281 288 287 289 289 293 294 292 292 290 285 291 296 297 297 296 297 298
305 304 304 304 304 304 305 304 303 302 302 302 299 296 295 297 296 293 293 289 283 286 287 283 285 285 286 286 286 284 284 285 284 285 288 289 287 289 290 293 295 294 294 290 290 291 287 286 285 284 286 285 281 283 292 290 294 296 296 296 294 293 287 289 284 284 285 282 280 281 280 278 283 290 295 299 297 297 295 291 287 295 297 298 297 297 298
305 304 304 304 304 304 304 304 303 302 301 302 300 298 298 299 298 296 293 289 285 282 286 289 288 287 286 286 287 284 283 283 284 285 286 286 287 290 292 293 294 294 293 291 290 288 286 285 282 284 282 283 287 286 285 290 289 294 297 295 293 293 293 291 286 284 284 282 279 279 277 280 286 288 292 295 299 296 296 289 284 293 297 299 298 297 298
305 304 304 304 304 304 304 304 304 303 302 301 298 297 296 300 298 295 292 291 289 284 290 290 290 289 287 286 286 284 286 283 285 283 282 284 286 288 290 293 295 294 292 292 290 288 286 285 285 285 287 289 284 283 288 287 285 287 292 294 291 288 286 286 284 283 283 282 279 279 283 283 288 291 293 296 299 299 291 280 282 291 296 297 297 296 297
305 305 304 304 304 304 304 304 304 304 303 302 299 297 296 300 299 298 294 290 285 285 289 291 289 287 285 286 285 287 288 288 287 287 285 286 287 287 288 290 289 293 294 290 288 285 283 283 282 281 281 289 289 290 281 285 283 285 286 288 287 287 287 287 284 284 284 282 281 284 285 290 294 295 298 299 301 295 284 279 286 294 296 298 298 298 298
305 305 304 304 304 304 304 304 304 304 303 301 301 298 297 299 299 298 294 290 287 283 290 292 292 290 291 292 290 290 290 288 287 283 283 284 285 288 289 289 291 286 291 286 288 284 283 283 287 285 282 285 288 283 288 284 283 288 289 286 286 287 287 287 287 285 284 285 282 283 286 294 298 299 298 300 294 283 283 292 299 298 299 301 302 301 302
305 305 304 304 304 304 304 304 304 304 302 301 300 295 297 299 300 299 293 288 289 286 289 290 291 289 291 289 287 287 288 288 288 285 284 281 289 289 288 285 289 289 288 290 284 286 283 282 283 286 283 284 286 290 286 287 289 286 287 290 286 286 284 284 284 286 287 286 283 283 279 289 297 298 296 300 287 288 296 299 300 302 302 302 302 303 304
305 305 304 304 304 304 304 305 305 304 302 301 300 297 294 299 299 299 299 294 288 284 287 293 293 292 292 291 292 291 289 286 288 286 288 287 290 287 280 281 284 286 284 285 282 283 284 283 285 284 288 286 288 288 283 283 286 292 291 291 290 293 284 285 286 290 282 283 281 282 289 294 299 297 288 294 296 299 300 300 299 303 304 303 304 304 305
305 305 305 304 304 304 304 304 305 304 302 301 301 299 294 298 299 299 299 298 290 286 289 294 295 293 294 295 295 295 293 292 293 293 289 286 290 288 287 287 287 287 288 290 287 286 288 287 288 284 283 285 290 285 287 283 282 289 293 293 283 293 288 289 284 291 287 285 288 294 297 298 301 301 299 299 301 303 303 303 303 302 303 305 304 304 306
305 305 305 304 304 304 304 304 305 304 303 302 300 297 294 296 297 301 299 292 294 294 296 294 295 295 296 296 298 298 297 297 296 295 294 288 286 289 288 287 287 291 291 292 288 288 287 287 283 287 285 287 285 284 287 288 285 289 286 293 291 295 296 297 294 292 295 296 296 298 298 298 298 300 302 302 303 305 305 304 302 304 304 305 304 305 306
305 305 305 304 304 304 304 304 304 304 303 302 301 298 296 297 298 298 296 294 290 285 289 292 288 287 290 292 295 298 298 297 296 296 298 295 285 286 290 291 292 291 291 293 295 290 289 288 287 289 283 288 289 285 283 283 285 291 289 288 292 294 296 294 291 292 288 286 296 296 296 297 297 298 301 303 305 305 305 304 304 304 305 305 306 306 306
305 305 305 305 304 304 304 304 304 304 304 302 301 301 300 298 299 298 293 286 286 285 281 285 287 292 295 296 297 295 297 299 299 298 296 295 293 289 288 293 295 292 291 293 294 292 289 285 286 286 282 289 290 284 291 285 286 292 285 288 290 289 298 293 291 289 287 288 294 297 297 297 298 299 299 300 302 303 305 305 305 305 306 306 306 307 307
305 305 305 305 304 304 304 304 304 304 304 303 302 299 297 296 299 300 297 295 293 289 282 282 288 296 296 295 294 296 298 298 297 297 296 295 295 295 294 294 294 296 295 294 294 289 287 286 286 286 284 285 293 287 287 291 289 293 288 288 292 293 295 286 289 287 290 293 295 295 295 296 297 298 300 302 302 303 303 303 304 305 304 305 305 305 305
305 305 305 305 304 304 304 304 304 304 304 303 302 300 299 299 301 298 294 293 288 284 285 281 287 291 294 292 296 298 298 297 297 296 296 296 295 295 294 293 292 293 292 292 291 289 288 287 285 284 287 287 291 291 291 289 290 288 288 292 294 292 287 290 289 285 285 286 289 292 286 286 292 296 299 301 303 303 302 302 302 303 303 304 303 304 305
305 305 305 305 304 304 304 304 304 304 303 303 302 301 301 299 299 300 300 297 291 285 285 285 286 290 295 292 295 296 297 298 297 296 295 295 295 294 294 293 292 291 290 289 286 286 286 284 285 288 288 290 288 288 292 293 293 291 290 290 292 288 288 287 284 283 283 289 292 293 292 291 294 297 300 302 303 303 301 301 301 302 303 304 304 303 304
305 305 305 305 304 304 304 304 304 304 303 302 301 299 298 299 300 300 300 301 298 291 288 287 291 290 286 291 296 295 297 297 296 295 295 295 294 294 293 293 292 292 291 290 288 287 286 287 288 288 289 294 290 288 291 287 287 286 289 292 293 293 293 290 289 288 290 293 292 292 290 289 292 297 300 301 303 301 300 302 303 303 303 304 303 304 304
305 305 305 305 304 304 304 304 304 304 303 301 298 294 289 291 299 299 300 300 298 294 286 284 282 286 295 293 294 295 295 295 295 295 294 293 293 294 294 293 293 293 292 289 288 285 287 287 287 291 293 297 290 288 287 288 288 290 294 293 294 294 293 293 293 289 288 293 292 292 292 292 297 299 299 301 302 301 301 301 302 303 303 305 305 305 307
305 305 305 305 304 304 304 304 304 304 302 299 295 287 285 284 293 299 299 299 299 294 287 287 284 290 288 294 293 292 294 294 294 294 293 293 293 294 295 295 294 293 288 288 287 288 286 286 287 291 294 294 292 289 289 289 286 288 291 292 293 292 292 292 293 293 293 291 292 293 294 295 297 296 297 297 298 300 301 301 302 304 304 305 306 306 306
305 305 305 305 304 304 304 304 304 303 302 297 292 290 292 293 297 299 300 299 298 292 287 284 284 286 285 289 293 295 293 294 293 293 294 294 292 293 293 293 291 294 291 289 289 288 287 289 288 291 291 296 293 290 291 288 284 285 290 291 292 292 293 293 293 293 293 293 291 290 291 292 293 292 291 295 297 299 299 301 302 303 305 307 308 308 308
305 305 305 305 304 304 304 304 304 303 300 301 302 303 302 302 302 301 301 299 296 291 291 285 282 285 283 287 292 293 293 294 295 294 295 296 294 292 290 292 293 291 295 290 286 286 291 288 288 289 293 297 290 289 289 285 285 289 290 291 291 291 291 292 293 292 291 291 291 287 287 289 291 293 294 296 297 297 297 300 302 304 304 305 305 304 305
305 305 305 304 304 304 304 304 304 303 302 299 293 295 299 302 302 302 301 299 294 292 289 285 283 283 284 292 287 292 293 291 291 292 290 296 295 294 290 290 292 288 291 289 290 289 290 289 289 290 294 289 291 289 284 286 289 289 290 291 291 291 291 291 291 290 290 290 290 291 292 293 293 294 295 295 294 296 297 298 301 301 302 303 303 303 304
305 305 304 304 304 304 304 303 301 298 293 295 295 298 300 301 301 302 301 296 287 285 285 286 286 282 282 284 282 288 292 292 291 292 289 294 294 293 292 288 289 287 289 295 289 289 288 290 294 290 287 291 287 283 283 285 287 288 289 289 290 289 289 288 289 289 289 290 290 290 292 292 292 291 291 292 293 294 294 296 299 300 300 301 302 302 303
304 304 304 304 303 303 301 300 298 294 291 291 293 299 302 304 302 302 301 299 294 286 285 286 285 282 282 279 281 287 293 291 292 292 291 290 292 293 292 290 286 290 293 289 288 289 288 294 292 287 289 285 282 283 284 286 286 287 288 288 289 288 287 288 288 289 289 289 290 291 291 291 290 290 291 291 292 293 294 295 297 297 298 299 301 302 302
304 304 304 303 300 297 293 291 298 296 294 298 301 304 303 302 301 301 298 296 297 297 288 286 284 284 285 284 284 287 291 286 291 289 291 289 288 288 289 288 287 288 288 287 285 287 292 296 291 285 285 282 283 287 286 286 286 286 287 288 289 289 288 289 290 289 287 287 288 288 288 288 288 289 289 289 290 291 292 292 294 295 295 297 300 301 301
304 303 299 295 293 286 286 288 294 300 301 301 302 298 296 296 288 289 289 287 292 294 289 290 284 287 289 286 282 291 290 288 290 287 288 286 286 287 286 287 287 287 284 284 288 294 292 290 287 285 284 288 288 287 287 287 287 289 288 288 288 288 288 289 289 287 285 284 284 284 285 286 286 287 287 287 289 289 290 293 294 294 295 298 300 301 302
301 298 296 294 289 286 286 292 303 303 301 301 299 291 287 287 287 285 285 287 288 285 289 287 285 289 287 285 286 292 290 288 286 286 284 292 286 285 288 284 288 287 284 283 286 293 287 287 287 285 282 285 285 285 287 287 288 288 289 289 289 288 289 288 289 287 286 284 284 285 285 284 284 286 287 287 288 290 291 293 293 294 294 296 298 298 301
296 291 288 287 286 288 298 301 302 300 297 290 288 287 284 287 284 282 286 283 283 286 288 283 289 289 289 286 286 286 293 289 285 285 286 288 292 285 286 285 287 284 280 281 284 291 286 282 285 285 282 284 284 287 287 287 287 288 288 288 288 289 289 289 289 290 289 287 287 287 288 288 289 287 287 287 288 288 289 291 293 293 293 294 295 297 299
294 291 289 286 291 296 298 300 300 297 290 286 286 285 285 282 285 284 283 281 281 283 289 288 288 286 289 289 288 285 293 294 292 290 288 285 291 289 285 283 287 283 280 281 285 286 285 284 284 282 281 284 285 286 287 287 287 288 288 288 288 288 288 289 289 290 289 287 287 287 288 288 288 288 288 289 289 289 289 290 291 292 292 293 294 297 299
294 292 294 298 297 298 298 294 290 286 286 287 284 281 284 284 284 282 283 280 282 282 285 287 284 286 287 288 288 290 290 293 291 287 286 284 289 286 284 283 285 281 279 284 286 284 285 282 281 281 284 285 286 287 286 286 286 286 287 287 288 288 288 288 288 289 289 288 287 287 288 288 288 288 289 289 289 289 289 290 290 290 291 293 294 296 297
300 300 299 294 293 289 288 285 287 287 282 281 280 278 281 279 281 281 282 285 287 286 287 292 291 291 291 293 290 291 290 292 288 285 285 285 287 286 284 282 280 278 283 285 283 282 282 280 279 281 285 285 286 286 286 286 287 287 287 288 288 288 288 288 288 288 289 288 287 287 288 288 288 289 289 289 289 290 290 290 289 289 291 292 293 293 294
298 297 291 287 286 286 287 280 287 284 282 283 280 277 278 278 280 281 281 284 286 286 289 288 289 289 285 291 289 287 288 289 288 286 286 284 284 283 281 280 282 286 287 283 282 280 281 282 283 283 285 285 285 285 285 285 286 286 286 287 288 288 288 288 288 288 287 288 288 288 288 288 288 289 289 289 289 289 289 289 290 289 290 291 291 291 292
288 286 286 285 284 286 285 278 287 283 279 281 282 281 281 279 282 283 284 288 288 287 288 288 288 288 287 289 287 287 286 286 288 284 282 284 283 282 280 281 284 281 281 278 280 281 282 280 284 284 284 284 284 285 286 286 286 286 286 287 287 286 287 287 287 287 287 287 287 287 287 287 287 287 288 288 289 290 289 288 289 289 290 290 290 290 290
286 285 285 282 278 283 284 281 282 279 283 284 283 284 284 285 285 286 289 289 288 288 288 289 288 288 287 288 285 285 285 285 284 284 284 283 281 279 284 284 284 280 277 279 278 277 279 281 282 283 284 284 285 285 286 286 286 286 286 284 285 285 286 286 286 286 286 286 287 287 287 287 287 287 287 288 289 289 289 289 289 289 289 289 289 288 288
287 287 285 286 281 284 285 281 282 284 286 285 287 287 288 288 288 288 288 288 289 289 289 288 288 288 287 286 286 285 283 283 283 284 283 281 280 283 284 282 278 278 276 276 277 279 280 282 283 284 284 284 284 285 285 285 285 285 285 286 285 285 285 285 286 286 286 286 286 286 286 287 287 287 287 287 287 288 288 288 288 288 288 288 288 288 288
284 287 287 280 279 283 281 283 287 286 285 286 286 287 287 287 287 287 288 289 289 289 289 288 287 286 286 287 286 283 283 282 282 284 284 282 284 282 281 280 278 279 280 278 278 281 282 283 283 283 284 284 284 284 284 284 285 285 285 285 286 285 285 285 285 285 286 285 285 285 286 286 286 286 286 286 287 288 288 287 287 287 288 288 288 288 287
288 286 284 283 284 284 284 286 285 285 285 285 284 285 286 286 287 288 288 288 289 289 288 289 286 285 283 283 282 283 282 283 280 280 282 282 279 276 277 276 277 276 280 281 281 281 282 283 284 284 284 284 284 284 284 285 285 285 285 285 285 285 285 285 285 285 286 285 285 285 285 286 286 286 286 286 286 286 287 287 287 287 287 287 287 287 286
287 285 285 283 283 284 285 285 284 284 285 284 285 284 285 287 287 289 289 289 288 288 289 287 288 285 282 283 280 280 280 282 281 281 279 277 277 279 278 276 278 278 279 281 281 282 284 284 284 283 284 284 284 284 284 285 285 285 285 285 285 286 285 285 284 285 285 285 285 285 286 286 285 285 285 285 286 287 287 286 286 286 285 286 286 286 285
287 286 286 288 284 284 284 281 282 281 282 285 286 286 286 287 288 288 288 289 288 288 285 283 281 282 282 280 278 276 279 283 281 280 280 279 282 280 278 277 279 281 282 283 284 284 284 284 284 283 283 284 284 285 285 285 285 285 285 285 285 285 285 285 285 284 284 285 285 284 285 285 285 286 286 287 286 286 285 286 286 286 285 285 285 285 285
285 283 284 285 286 286 285 285 285 285 286 286 287 287 287 288 288 288 287 289 288 285 282 281 282 280 277 277 279 281 282 281 277 277 277 281 282 279 279 280 282 283 282 282 283 283 284 284 285 284 284 284 284 284 285 285 284 285 285 285 285 284 284 284 284 284 284 284 284 284 285 285 285 286 286 285 285 285 284 283 285 285 285 285 284 285 285
Wind_Speed
19 18 19 19 21 20 23 22 22 21 21 8 6 5 4 4 1 4 5 6 1 6 5 3 3 2 3 7 5 5 4 3 3 4 2 4 2 2 3 3 1 1 1 1 3 5 6 5 4 2 2 6 7 4 4 3 2 3 3 1 4 5 3 6 10 9 12 15 14 7 7 8 5 7 9 6 7 7 8 9 5 7 6 6 7 8 8
18 18 18 20 20 20 21 21 21 20 19 8 6 3 2 1 3 4 4 5 2 7 4 3 4 3 5 4 5 3 3 2 5 4 5 2 3 2 2 1 2 2 2 0 3 4 4 3 6 4 1 5 2 3 3 6 4 5 1 3 3 4 2 5 7 6 5 2 4 4 3 3 4 3 5 10 9 8 4 5 0 7 12 13 9 11 6
19 17 18 20 19 19 19 21 21 20 18 10 2 3 1 2 2 3 6 6 5 5 3 1 1 5 7 6 6 7 2 3 5 8 6 3 3 3 3 3 1 1 1 3 4 5 7 5 4 4 2 5 1 4 4 6 6 5 4 0 1 4 2 3 4 4 3 2 2 1 3 4 2 3 4 5 10 9 5 9 7 10 10 14 11 10 13
17 17 18 19 18 18 18 18 20 21 19 10 1 0 2 3 2 3 4 5 4 5 2 5 2 3 6 4 2 3 5 4 4 3 6 1 3 3 3 1 2 1 3 3 3 3 4 7 3 2 6 4 3 3 4 7 8 7 9 5 1 1 1 4 6 7 7 7 8 2 2 3 6 6 5 6 8 7 7 4 7 12 10 10 13 14 17
17 18 17 17 17 17 18 18 19 21 20 9 2 2 2 0 3 3 5 3 5 4 3 3 3 3 2 2 4 5 4 6 7 2 3 3 6 4 2 2 1 3 5 4 6 3 5 8 11 10 10 4 5 6 7 6 10 10 6 6 2 1 4 6 9 12 13 14 14 11 6 13 14 14 13 10 8 7 8 8 10 3 7 13 12 17 19
16 17 17 16 17 17 18 18 19 21 21 8 1 3 3 2 0 1 1 1 3 2 1 5 4 2 1 3 2 5 7 7 6 5 1 8 5 2 0 1 3 3 2 5 6 6 9 6 5 3 5 6 7 11 3 5 7 10 5 6 5 4 3 4 4 8 10 10 12 11 10 11 13 15 15 15 12 8 11 11 13 7 11 16 8 3 8
15 15 15 15 16 17 17 18 18 20 21 8 1 3 2 3 1 1 2 1 1 2 6 7 4 5 4 2 2 2 3 6 3 3 8 8 4 1 2 2 1 1 2 2 4 5 9 4 4 3 7 7 11 8 7 4 3 7 6 5 5 3 6 5 6 10 10 10 9 8 11 13 13 13 15 15 15 15 13 15 13 13 15 16 11 12 16
14 14 15 15 15 15 16 17 16 19 18 5 6 6 1 3 2 1 3 2 4 4 4 2 2 2 0 1 2 2 2 3 7 3 2 5 5 2 4 7 11 10 5 4 5 7 6 9 13 7 7 15 3 7 7 4 1 4 6 4 5 5 5 4 1 5 10 10 8 7 10 11 15 15 15 15 15 16 16 14 13 12 15 16 17 17 20
13 13 15 14 14 14 15 15 15 17 15 4 5 4 4 1 1 0 2 2 2 2 2 2 2 1 0 1 1 2 3 2 6 11 7 11 5 2 7 11 14 9 5 6 12 14 13 14 18 18 15 14 7 3 3 1 3 2 4 4 4 9 6 0 2 9 14 4 9 12 10 11 15 18 17 16 16 17 15 13 11 10 14 13 13 15 17
12 12 13 13 13 13 13 14 12 12 12 3 1 3 3 0 1 2 0 1 1 2 0 2 1 1 1 1 1 3 5 3 8 9 2 6 10 10 11 11 8 13 12 13 10 8 9 14 18 16 16 15 16 14 16 14 11 6 6 4 5 6 5 5 5 9 13 2 5 5 5 8 9 13 18 20 17 16 12 13 11 14 12 11 12 17 15
11 11 12 12 12 12 12 12 10 8 7 7 4 3 3 3 2 2 1 0 1 1 2 1 1 2 1 2 5 4 7 6 5 2 4 4 5 3 4 8 9 11 13 12 10 13 17 19 21 16 15 16 17 14 14 17 15 14 11 5 5 6 7 9 3 6 11 3 0 1 3 5 6 3 2 9 16 16 16 15 15 16 14 13 14 16 13
10 10 11 11 11 12 12 10 8 6 5 3 1 2 2 2 1 1 2 2 1 2 1 3 4 3 3 5 3 7 9 9 9 6 11 10 13 11 13 13 8 8 5 9 15 18 20 13 8 5 6 8 11 12 13 14 15 11 6 10 7 8 7 6 3 4 5 1 2 6 5 6 2 1 4 4 8 8 12 14 14 14 14 17 18 17 16
9 9 10 10 10 10 12 9 6 5 3 2 1 3 1 3 2 0 1 0 3 1 2 4 2 7 9 8 7 7 9 10 11 12 12 14 13 7 6 6 7 10 13 19 21 17 10 6 6 2 3 1 2 5 9 12 14 12 8 8 9 7 8 6 3 3 3 3 1 2 3 4 8 5 2 5 1 3 4 10 14 15 13 12 15 16 16
8 9 8 9 10 9 10 7 4 4 3 3 1 1 1 1 1 1 1 1 4 3 3 6 5 4 5 6 7 9 10 10 9 8 8 5 8 10 8 6 10 11 14 14 13 8 5 3 2 5 3 2 2 2 4 9 10 7 6 11 11 10 6 2 5 3 5 3 4 8 10 12 4 5 6 3 4 2 2 6 9 5 7 11 14 16 14
8 9 8 8 8 9 9 6 4 4 4 3 2 1 0 2 2 1 1 1 4 5 3 1 4 5 5 6 4 8 5 6 8 4 8 7 8 7 6 9 11 14 13 8 4 1 0 1 3 5 4 7 6 5 6 5 3 4 6 4 7 7 7 2 3 2 2 7 7 6 2 2 3 3 7 5 4 1 1 4 14 7 8 8 10 11 9
8 8 9 8 9 8 8 7 5 4 4 1 1 0 1 1 1 1 2 2 2 5 1 3 1 3 6 5 5 5 5 7 7 9 4 2 5 7 9 9 12 11 7 4 2 3 2 1 1 3 4 5 5 6 5 9 7 5 1 4 3 3 7 8 5 4 4 4 5 5 5 2 3 7 8 9 6 5 6 4 11 2 2 4 7 10 11
8 8 9 9 8 8 8 8 7 6 5 3 1 0 2 3 1 2 2 3 3 6 2 3 3 3 4 4 1 2 2 3 6 6 6 5 6 11 12 10 8 4 6 2 2 2 3 3 1 2 1 4 6 5 9 6 10 8 3 5 1 1 1 1 2 5 4 5 4 5 2 4 5 8 8 10 9 5 4 5 3 3 6 8 10 15 16
10 9 9 8 7 8 7 8 9 7 5 2 2 1 2 2 2 2 3 3 3 6 5 3 3 1 2 3 7 2 1 3 4 5 7 8 9 5 8 9 9 3 3 3 3 1 2 2 4 4 3 3 6 5 5 9 7 9 10 13 7 2 2 1 6 4 8 4 4 4 4 4 5 6 6 9 7 5 4 7 4 4 9 12 12 15 17
9 9 9 8 8 8 8 8 9 8 5 2 1 2 3 3 3 2 1 3 3 6 2 3 3 6 4 1 6 4 3 4 5 6 7 6 1 4 11 5 3 5 7 3 2 2 2 2 1 2 3 3 4 4 7 6 6 7 8 10 4 4 7 1 2 8 11 7 5 6 5 3 3 4 9 11 7 3 8 9 7 12 16 16 12 12 15
11 10 8 8 8 8 8 8 9 7 2 2 2 3 2 3 4 5 4 5 4 10 9 10 7 11 5 6 4 4 4 4 6 6 4 5 2 11 4 2 2 3 3 3 1 1 2 4 3 2 1 4 3 3 5 5 4 5 5 6 3 4 6 9 10 6 5 4 7 7 7 2 3 16 14 2 5 7 11 14 16 12 11 11 11 8 8
11 11 10 9 8 8 9 9 9 6 3 2 2 2 4 2 3 3 5 6 4 9 7 4 4 9 8 10 11 10 9 9 5 5 5 5 3 4 3 2 4 5 3 3 3 3 2 3 3 3 2 3 3 4 6 8 8 3 4 5 3 2 5 4 3 2 6 5 6 5 6 14 13 11 8 13 12 12 15 14 13 14 11 9 7 7 7
11 11 11 11 10 9 9 9 9 7 3 3 4 2 4 3 3 2 4 5 7 8 7 7 8 12 13 14 14 13 14 16 17 10 8 8 5 5 4 4 5 2 1 1 2 1 1 3 2 2 4 3 1 4 6 5 4 1 2 2 4 5 4 3 9 5 3 5 9 12 16 17 15 11 12 13 16 13 14 15 13 14 11 11 9 14 13
12 11 11 11 11 10 9 9 9 7 4 4 2 3 5 2 2 2 3 6 6 8 10 15 10 13 13 14 16 15 15 14 13 9 10 8 6 6 8 7 6 3 3 2 2 2 2 2 2 3 4 3 3 5 3 3 4 3 6 2 4 2 3 8 6 5 9 13 13 12 13 16 19 17 12 12 14 14 13 16 13 12 12 12 12 14 16
12 13 12 12 12 11 10 10 10 8 6 5 4 3 5 3 4 3 4 5 5 8 7 6 5 3 2 4 2 5 8 9 12 14 10 10 7 4 4 7 3 2 4 3 1 2 1 1 3 2 5 3 2 3 3 3 3 4 6 5 3 5 8 11 7 12 11 6 3 13 17 18 22 18 17 16 13 14 14 14 12 12 13 14 12 14 15
12 13 13 12 12 11 10 10 10 8 6 5 5 4 4 5 4 5 4 3 1 1 7 6 8 11 8 5 4 4 8 8 7 10 10 13 14 8 4 2 7 3 1 1 1 1 1 2 3 2 5 2 2 3 2 2 3 4 8 5 9 3 9 8 8 14 4 8 16 15 19 19 14 10 14 19 21 21 16 14 13 12 12 13 13 13 16
13 13 13 12 12 12 11 11 11 9 6 6 5 4 5 6 2 3 5 4 4 2 6 5 6 3 3 9 9 7 3 7 9 10 13 15 16 15 9 0 1 1 0 1 2 2 2 3 4 5 6 4 3 3 3 3 7 3 4 4 5 8 9 7 13 9 11 13 8 16 21 12 11 17 18 18 18 18 18 18 17 14 14 15 15 11 11
13 13 12 12 12 12 11 11 10 7 6 6 4 4 5 6 4 6 4 2 4 5 4 7 6 7 6 14 11 6 5 6 7 9 10 13 14 12 10 10 8 4 4 5 1 2 3 5 4 7 7 4 1 4 4 7 4 2 1 5 9 6 5 10 9 7 7 9 15 19 16 13 16 18 21 23 21 19 19 18 19 16 15 15 15 16 14
13 12 12 12 12 12 11 11 11 8 8 7 5 5 5 7 6 7 7 7 7 4 5 7 9 12 13 13 5 3 5 5 7 8 9 11 13 12 12 11 9 9 7 4 5 3 5 5 7 2 2 4 2 5 3 3 1 2 2 6 6 4 6 8 7 7 9 15 18 14 13 16 15 16 21 22 19 18 19 15 14 18 15 15 13 12 14
13 13 14 14 13 13 12 11 10 8 7 5 3 5 7 8 5 6 8 6 7 5 4 7 10 10 5 6 8 8 5 5 7 9 9 10 12 12 12 12 12 9 7 6 4 3 3 5 1 3 3 2 3 4 1 2 1 0 4 8 8 6 7 8 8 11 12 11 13 16 13 13 17 20 21 20 16 17 19 17 14 16 16 16 16 13 9
14 14 15 14 14 13 12 11 10 7 6 1 0 2 3 1 2 1 4 7 7 3 3 4 7 4 5 6 6 4 4 5 7 9 10 8 9 10 10 11 11 10 8 5 4 5 4 4 2 3 4 2 3 1 2 1 2 2 6 11 10 10 8 6 9 9 10 14 14 16 18 18 16 17 19 16 17 17 16 17 16 16 17 16 15 16 14
16 16 16 16 14 13 13 12 10 7 7 3 2 1 1 1 1 1 5 5 5 4 2 2 8 6 7 3 4 7 9 9 6 6 9 9 9 8 7 7 7 10 8 6 4 6 1 4 1 3 2 5 4 2 2 3 4 3 8 12 10 11 11 11 11 10 10 15 17 17 13 11 13 17 13 15 23 22 19 18 19 15 15 15 15 15 14
17 18 18 16 16 14 13 12 11 8 6 6 6 4 3 1 1 3 4 4 5 2 1 5 6 3 5 5 3 3 7 7 2 2 2 3 3 5 6 9 6 9 6 5 4 1 4 3 3 5 5 2 4 2 0 2 3 6 12 12 11 11 11 12 12 11 10 12 17 19 14 15 14 15 15 22 20 21 19 18 18 18 15 8 8 10 11
15 17 17 15 15 14 13 12 10 6 6 6 8 9 9 5 8 7 5 5 3 2 1 1 4 4 4 5 7 3 3 3 1 3 1 3 3 4 4 5 4 3 7 3 3 4 2 2 1 2 1 0 1 0 2 3 4 9 11 11 12 13 14 13 11 8 11 11 12 10 13 16 21 23 20 19 16 10 14 16 17 17 16 17 17 19 18
15 16 16 14 15 14 12 11 9 9 4 3 5 6 5 11 12 12 6 2 1 1 0 1 3 4 7 3 5 1 4 4 3 2 2 2 2 3 2 5 5 3 5 6 1 2 1 1 3 1 1 2 1 0 2 5 10 12 12 12 13 14 14 14 10 13 16 14 11 11 12 15 17 16 15 15 19 21 19 16 17 18 19 16 16 15 15
15 15 14 13 12 10 9 8 4 4 3 3 4 6 5 8 10 12 12 4 3 2 1 2 1 4 5 3 3 4 3 3 3 2 1 0 1 1 4 2 2 2 1 3 2 1 1 1 1 1 1 1 2 4 3 10 14 13 12 13 14 15 16 16 12 17 18 18 16 14 13 16 18 17 17 18 18 18 20 20 18 18 17 16 16 17 16
15 14 13 12 9 5 2 4 3 3 2 4 5 1 4 1 5 5 8 6 3 2 2 2 2 4 2 4 4 2 4 3 1 3 2 3 2 2 0 2 2 2 3 3 2 1 1 1 1 1 1 2 4 4 6 9 12 12 11 12 12 12 12 14 17 22 20 19 17 14 17 17 17 17 17 17 17 18 19 19 20 21 18 16 17 17 15
15 15 14 11 5 3 4 2 1 4 4 2 1 5 10 10 5 5 4 4 2 2 3 1 3 5 5 2 1 3 4 3 4 3 2 1 3 1 1 0 1 1 1 2 1 2 1 1 2 4 3 3 4 5 8 9 9 10 11 11 12 12 12 12 14 18 22 20 13 10 14 17 20 18 19 19 19 18 19 20 19 18 19 19 18 16 15
18 17 8 4 3 1 1 2 4 3 7 7 8 5 1 1 1 0 1 1 2 3 3 3 7 5 2 3 6 2 2 2 2 2 2 0 1 1 0 0 0 0 2 1 1 2 2 2 2 4 5 5 5 5 7 8 8 7 8 10 11 11 12 13 15 17 20 22 21 22 21 17 15 17 18 20 20 21 17 15 15 12 13 14 14 13 14
17 7 4 3 3 3 3 2 2 7 7 1 1 1 1 0 1 1 2 2 1 4 2 4 6 6 7 8 9 2 4 3 3 1 1 1 1 2 1 2 0 0 0 1 1 0 1 1 2 2 4 3 5 8 8 8 7 7 8 9 10 11 12 12 13 15 16 13 14 15 14 15 18 19 17 17 17 16 16 14 13 15 15 14 13 14 13
7 7 4 4 4 3 1 1 3 5 1 2 1 1 2 1 2 2 1 2 3 2 2 5 5 7 10 9 3 3 3 4 1 2 1 4 2 1 0 1 0 0 2 1 1 2 1 3 1 2 2 5 6 8 9 9 9 8 8 10 11 12 12 13 13 13 14 14 13 12 13 14 15 15 15 16 17 18 18 18 16 15 15 16 15 13 13
4 5 5 3 3 2 2 2 1 1 1 1 1 0 1 2 2 1 2 3 4 3 3 4 2 3 6 8 6 6 1 1 1 1 0 3 0 1 0 1 0 1 2 2 0 1 2 3 2 2 3 4 7 10 10 10 10 10 9 11 11 11 13 13 15 16 16 14 13 12 13 14 15 15 14 15 15 14 15 16 17 16 18 18 18 17 13
7 6 4 4 3 3 2 1 1 2 0 0 1 3 3 1 1 1 2 3 4 2 3 6 3 4 5 10 7 4 3 2 1 0 0 2 0 1 2 1 1 1 2 1 2 1 0 2 2 3 4 5 7 8 10 10 10 11 11 12 12 13 14 14 16 16 16 15 14 14 14 15 16 14 14 15 15 15 16 17 18 17 17 17 15 14 14
15 9 5 4 2 1 1 2 2 1 3 3 2 2 2 2 4 4 2 2 1 2 0 2 2 1 1 3 3 5 2 1 1 1 1 2 0 1 1 1 1 2 1 2 1 3 2 3 2 3 4 5 6 8 9 9 10 10 10 11 12 12 13 14 15 16 16 15 15 14 14 15 15 15 14 14 15 17 16 15 16 16 14 15 15 14 14
7 4 3 1 2 1 1 3 2 2 3 2 4 5 4 2 2 2 2 2 3 3 4 4 4 5 1 4 1 1 0 2 1 0 2 0 0 1 0 1 2 1 1 1 3 3 3 3 3 3 4 4 4 7 8 8 9 9 10 11 11 11 12 13 14 15 15 14 14 15 13 14 15 15 14 14 15 17 17 16 16 16 14 13 13 13 13
5 2 2 2 2 2 2 2 2 3 5 5 4 4 4 4 3 5 4 1 2 1 2 1 2 3 1 1 0 1 0 0 1 1 1 0 1 0 1 2 1 2 2 1 1 1 3 3 3 4 5 6 6 7 8 8 9 9 10 11 11 12 13 14 14 14 14 15 16 15 14 14 15 15 14 15 14 13 15 16 17 17 15 14 14 14 13
2 4 4 4 3 3 3 3 3 4 3 2 4 4 4 3 2 3 1 1 2 2 3 3 2 1 2 0 1 0 0 0 1 1 0 1 0 2 1 0 1 2 1 1 2 1 2 3 3 4 5 6 6 6 7 8 8 9 9 11 12 12 12 12 13 14 14 15 14 14 14 14 14 15 15 15 13 13 14 15 15 16 14 14 15 15 12
2 0 1 1 2 3 1 5 6 3 3 3 3 5 4 2 2 1 1 1 0 1 2 0 1 0 0 0 0 0 1 0 1 1 0 2 2 1 0 1 3 1 2 2 2 1 3 3 3 4 4 5 6 6 7 8 9 10 10 10 11 12 12 12 13 14 14 14 14 14 13 14 14 13 14 15 15 14 14 15 16 15 14 14 13 12 12
4 2 2 2 3 4 7 4 1 0 0 1 1 1 1 1 2 2 2 1 1 1 2 3 2 1 1 0 0 0 0 0 1 1 1 1 0 1 1 1 1 0 1 1 2 3 2 3 4 4 4 4 5 6 7 7 9 10 10 10 11 12 13 12 13 13 14 14 13 13 13 14 13 13 13 14 14 14 14 14 15 14 13 13 13 13 13
1 2 4 2 1 2 1 1 3 3 2 0 1 2 3 4 3 3 2 1 2 2 1 0 1 1 0 0 0 0 1 0 1 1 1 1 1 1 1 2 1 1 2 2 2 3 3 3 4 4 4 5 5 6 7 7 8 9 9 10 10 10 11 11 12 12 13 11 11 12 12 13 13 12 12 13 13 14 14 14 15 14 13 14 14 14 13
2 0 1 2 2 0 1 1 2 3 1 1 3 3 2 3 3 2 2 2 1 3 2 2 1 0 0 0 0 1 1 0 0 1 1 1 1 1 1 3 2 1 2 2 1 2 3 4 4 4 4 5 5 6 7 8 8 8 8 8 8 8 10 11 11 11 11 10 11 11 12 12 12 12 12 13 12 11 11 12 14 14 14 13 13 13 13
1 0 1 1 1 2 5 6 8 5 3 5 4 4 4 5 4 3 1 3 3 2 1 1 0 1 0 1 2 0 0 0 1 1 1 1 2 2 2 4 0 2 2 2 1 2 4 4 4 4 5 6 5 6 7 7 8 8 8 8 8 8 9 10 10 10 10 10 10 11 11 11 11 11 10 10 11 11 11 11 13 14 14 12 12 12 13
2 3 2 2 1 1 1 2 2 2 3 3 4 2 2 4 2 2 1 2 3 1 1 1 1 1 1 1 2 0 0 1 0 1 1 1 2 2 2 2 0 2 1 2 3 3 3 3 3 3 3 4 5 6 6 7 7 6 7 7 8 8 8 9 9 9 10 9 10 10 10 11 12 10 10 10 11 12 13 12 12 13 13 11 11 11 11
Wind_Direction
350 351 349 346 347 350 352 352 351 352 352 2 352 319 24 33 259 304 310 331 56 69 87 130 53 3 294 304 275 251 265 263 285 312 341 324 224 285 243 245 271 279 333 317 313 321 287 268 251 260 262 273 266 262 191 216 264 245 278 240 230 165 251 264 269 278 265 257 259 255 232 229 244 232 240 235 227 211 239 246 269 254 225 224 228 238 264
349 351 348 348 349 352 351 352 353 351 3 348 312 41 70 284 298 322 295 347 59 69 44 351 2 338 315 320 274 245 249 305 321 310 313 295 321 294 304 344 231 311 30 293 291 325 317 230 259 289 189 276 239 256 229 195 231 209 179 254 110 237 193 253 295 310 322 103 131 140 112 192 229 251 220 227 240 235 236 280 322 259 246 248 249 249 245
348 348 347 350 350 352 350 351 352 350 354 359 323 18 325 265 235 248 303 343 13 76 153 65 329 356 343 331 337 348 321 223 277 302 291 285 266 336 263 207 325 276 76 282 248 243 229 292 261 274 262 269 280 275 232 209 224 224 231 74 101 239 231 204 277 305 321 321 333 311 260 251 281 262 248 222 230 225 211 232 213 236 233 238 241 252 255
346 346 348 350 349 351 349 350 352 349 352 358 141 330 298 3 358 331 340 13 30 85 62 86 39 351 356 338 338 319 307 305 312 275 276 240 322 260 265 56 127 100 329 313 307 308 233 223 281 316 295 298 287 214 202 198 210 221 238 239 84 262 221 238 242 259 267 277 290 352 0 280 268 249 227 233 213 221 236 267 245 230 227 228 229 244 257
345 344 346 349 351 353 350 353 352 349 349 2 132 63 59 250 64 341 339 338 62 81 39 63 34 18 350 294 352 330 317 298 313 76 287 19 346 299 224 242 59 319 350 353 310 250 264 244 258 268 264 246 266 280 260 225 223 217 226 197 131 233 267 235 243 248 256 272 277 293 299 284 282 282 274 264 243 233 220 222 235 256 249 244 228 228 246
343 342 343 348 352 355 352 355 355 350 346 353 220 44 345 40 187 119 138 309 329 3 66 26 354 11 139 248 296 298 328 345 353 319 280 325 304 277 155 146 93 81 288 307 298 304 290 266 252 255 227 274 310 318 143 217 218 209 216 187 191 214 247 219 184 247 251 261 273 282 279 261 266 271 270 270 262 234 237 238 241 241 242 248 244 8 287
340 339 339 346 351 356 355 359 357 352 344 350 90 82 18 90 76 152 319 298 209 212 313 321 321 320 172 264 236 281 318 321 4 347 311 326 298 353 302 257 190 162 227 204 276 296 327 318 264 277 300 307 323 307 304 201 218 196 209 191 190 199 245 244 219 258 262 259 253 259 275 282 273 262 261 258 259 259 246 248 250 241 250 264 285 288 274
336 337 336 342 349 353 358 2 0 356 347 339 72 46 359 27 353 1 340 269 285 290 312 305 322 336 234 266 251 274 301 289 322 303 293 310 289 308 248 291 317 310 283 222 243 230 236 266 286 292 312 305 272 271 251 277 129 202 210 215 196 221 260 171 229 270 253 239 249 231 236 252 269 269 264 260 258 259 256 253 249 250 261 261 267 273 272
332 333 333 339 344 350 358 4 7 5 352 50 47 67 34 34 51 186 339 327 253 242 261 295 351 353 166 236 270 281 231 285 340 303 249 235 262 310 291 317 314 304 291 246 243 254 251 252 252 266 274 270 262 305 283 348 327 207 229 231 219 201 260 75 262 285 285 234 235 249 247 248 255 265 265 256 249 250 241 237 225 220 243 252 258 257 255
328 332 332 334 339 342 352 2 16 19 5 42 37 67 16 53 213 211 254 292 2 304 190 270 230 359 142 242 290 335 290 316 338 325 224 226 243 265 286 303 325 305 306 288 271 270 252 262 268 264 262 255 261 248 255 265 272 288 280 312 274 222 247 265 257 276 278 295 243 250 272 271 264 251 245 238 234 233 248 253 245 230 230 242 242 246 250
323 326 328 331 335 335 344 354 13 34 39 29 33 54 25 38 9 334 153 307 234 161 308 282 293 290 291 222 286 247 276 296 302 287 292 317 273 260 295 296 302 288 280 273 297 304 295 283 272 265 257 253 253 254 252 256 254 247 250 261 257 233 238 259 197 259 282 343 319 135 275 278 245 203 215 232 221 215 225 237 233 234 213 230 238 252 267
314 321 322 325 330 333 340 345 10 55 79 101 13 59 11 342 302 226 327 348 304 138 320 283 285 293 258 281 263 285 292 289 291 253 264 273 275 279 277 274 261 270 246 278 310 310 301 269 244 234 231 251 249 250 244 246 251 238 200 221 245 266 266 261 193 250 276 19 277 285 262 250 19 343 272 255 270 259 227 242 248 247 232 234 252 261 265
307 312 319 320 325 333 338 350 11 27 114 96 76 13 15 298 294 332 329 49 270 225 322 299 244 262 272 279 278 263 265 286 287 276 264 268 282 276 226 234 221 255 304 315 317 319 328 318 301 240 249 265 223 223 231 236 249 248 198 204 235 247 249 256 238 237 277 269 206 284 243 1 315 300 113 302 346 65 315 275 255 254 262 264 261 261 263
298 303 310 317 318 329 336 354 356 13 33 128 30 352 319 323 301 226 272 305 281 217 222 276 266 271 268 271 269 288 300 286 280 270 278 225 241 274 270 235 248 280 305 314 305 307 297 10 11 347 9 315 193 236 215 231 243 252 204 196 214 229 256 239 276 169 262 264 241 247 311 315 359 351 6 358 331 342 304 290 261 205 237 235 245 251 254
285 292 300 309 314 319 330 332 339 357 356 114 103 133 220 245 234 252 347 239 285 281 207 284 341 319 299 294 299 312 303 307 314 270 242 255 253 243 243 265 284 291 300 306 297 345 316 294 16 352 2 16 2 327 316 351 334 204 245 212 192 205 227 226 265 287 231 282 298 296 254 282 327 324 344 331 300 66 104 266 282 275 258 277 267 266 276
281 287 295 302 309 314 319 316 320 334 345 64 160 117 265 209 237 245 220 282 321 313 223 221 80 309 309 302 300 299 310 317 321 301 289 236 248 284 274 283 290 291 285 236 269 306 346 16 32 16 23 355 320 307 327 339 331 328 254 122 157 190 242 252 255 291 313 280 296 301 306 273 216 279 269 283 263 256 272 255 268 69 19 356 326 305 297
269 279 286 293 301 306 310 308 303 311 319 293 201 154 327 157 226 274 260 257 217 244 323 306 298 291 298 292 191 241 216 302 339 343 331 326 327 312 303 311 284 260 307 268 337 335 24 35 56 356 293 347 345 333 301 335 332 326 356 163 197 162 337 260 244 281 274 306 302 303 261 285 228 235 257 258 261 193 158 271 282 18 336 323 313 296 291
264 271 277 280 293 299 301 303 299 304 305 198 242 167 257 184 203 228 261 245 272 284 263 247 156 274 277 311 303 310 229 281 267 293 262 291 299 319 327 338 339 333 324 351 344 10 30 39 20 20 341 19 324 294 348 327 319 338 333 333 338 338 338 271 338 312 314 296 275 266 272 245 262 263 270 278 283 259 254 269 294 202 255 258 245 252 262
251 257 264 269 279 287 291 294 294 296 314 277 186 245 251 197 174 200 301 260 227 259 201 224 207 251 272 199 253 274 267 285 297 290 298 304 276 307 284 303 309 334 6 0 335 30 11 44 212 22 328 337 3 1 322 319 329 314 313 347 325 342 338 310 296 347 343 326 292 297 266 299 327 311 306 304 307 327 311 287 271 284 288 286 274 266 268
253 253 253 257 268 275 278 287 289 292 299 225 194 258 253 169 192 193 223 248 253 264 275 266 243 260 235 245 250 249 263 250 234 246 254 268 27 342 318 156 164 341 312 343 66 357 6 14 358 303 314 323 340 319 308 298 287 283 307 307 280 334 320 351 350 326 286 313 315 325 343 27 50 342 329 80 347 289 286 300 306 298 288 283 293 301 280
251 251 250 257 265 271 277 281 290 285 261 260 183 267 286 183 182 213 221 233 271 295 291 241 247 242 239 243 240 249 254 252 222 221 231 260 344 340 315 321 345 353 337 9 13 7 14 355 359 335 309 291 331 310 345 320 304 250 261 325 308 327 325 340 330 13 316 323 336 344 325 302 334 351 317 311 291 295 301 307 308 322 325 334 326 301 279
239 243 248 253 259 268 274 281 290 285 246 231 240 225 267 231 190 178 214 205 238 241 264 294 282 275 259 250 251 239 240 242 247 244 267 275 264 260 281 297 285 276 293 292 281 248 358 357 272 314 316 306 286 296 320 319 313 11 279 294 343 54 2 331 310 310 310 318 298 291 301 317 322 328 306 288 294 300 305 308 314 327 338 331 311 312 308
236 234 240 248 253 262 275 279 282 279 247 236 220 232 261 269 240 200 169 263 247 257 273 275 274 274 267 254 241 232 233 233 248 244 229 241 264 246 247 258 267 229 260 257 311 327 327 322 306 297 296 242 305 316 276 250 284 345 341 36 260 314 26 312 272 320 314 272 254 270 307 326 323 320 319 319 316 317 319 319 324 335 331 314 310 311 310
234 236 238 244 248 255 267 275 278 275 259 247 229 230 268 248 251 252 255 250 275 302 274 230 327 303 282 311 116 197 216 228 228 229 213 202 228 258 237 239 237 226 235 241 308 308 329 268 296 324 281 282 246 272 307 319 302 346 319 334 350 312 356 335 340 334 331 319 279 327 332 332 320 314 323 323 322 326 328 323 323 321 312 306 318 313 305
230 232 237 239 243 249 258 265 273 271 253 250 259 244 241 260 237 228 248 291 302 342 296 306 268 261 284 280 282 235 207 211 198 206 194 203 214 216 217 173 195 210 178 93 129 284 59 302 295 250 284 268 213 287 136 269 291 54 328 343 348 337 350 325 347 325 286 282 307 330 331 311 295 314 326 329 332 332 331 325 318 314 305 311 317 320 311
227 227 231 236 240 245 252 260 266 265 250 253 255 244 247 262 214 188 229 246 261 257 277 295 287 295 282 307 280 266 233 193 205 197 197 201 209 223 235 350 227 146 138 44 11 338 304 277 263 266 264 282 187 264 249 177 298 335 269 343 358 302 323 347 323 298 283 273 294 333 319 300 319 330 323 326 326 329 329 329 326 329 330 328 327 327 316
225 226 227 231 236 239 247 255 263 258 245 250 248 245 249 258 208 207 201 223 303 286 212 258 269 276 310 296 287 296 244 210 200 203 205 206 211 215 225 240 250 242 259 271 5 269 265 252 253 255 218 249 344 263 288 285 275 311 341 8 345 347 359 329 326 329 332 341 329 339 339 332 326 320 322 325 326 335 328 330 335 334 333 331 332 327 324
221 218 218 222 230 238 245 253 258 250 239 250 253 254 249 257 229 213 213 211 197 257 301 293 300 300 309 273 274 223 243 225 211 209 210 209 206 210 215 222 226 241 241 241 260 219 220 225 234 237 287 274 252 249 189 256 314 214 67 16 359 5 343 349 347 327 307 311 319 327 314 303 295 308 317 322 328 335 329 325 324 326 327 322 324 324 329
217 215 220 221 225 230 238 245 252 245 239 248 279 286 268 241 236 214 216 193 211 250 273 280 278 288 294 319 307 284 264 217 218 217 219 214 202 205 210 212 218 221 226 230 242 261 242 248 236 223 238 176 207 279 265 253 251 78 46 5 359 4 355 336 307 300 281 295 315 318 310 303 296 310 316 315 326 330 323 326 326 323 327 329 326 324 318
214 210 212 217 220 225 231 239 244 234 223 129 250 306 318 350 136 243 183 194 195 196 263 308 313 280 308 297 286 269 265 235 228 222 220 216 209 206 206 206 218 213 210 211 202 237 242 259 241 240 249 147 248 312 281 277 299 105 23 358 351 344 349 335 337 320 297 307 310 311 307 296 306 318 310 308 323 331 331 327 324 327 329 335 338 333 330
213 211 210 211 215 218 225 233 238 218 186 157 131 267 331 307 65 83 143 156 165 175 238 215 255 303 298 230 288 290 302 305 276 242 224 215 215 204 198 179 210 200 206 212 214 242 28 247 195 230 184 197 209 262 291 307 317 312 359 347 344 339 338 334 338 326 309 322 316 311 294 303 315 318 320 333 331 333 332 328 323 324 335 343 346 343 336
212 211 207 207 208 211 218 227 233 218 189 180 181 180 199 195 120 120 146 149 133 202 268 303 304 296 300 290 263 276 298 290 287 280 208 163 171 180 177 188 189 196 199 202 220 220 231 232 241 263 279 175 177 276 169 45 358 335 337 337 342 336 332 332 337 336 334 330 337 334 334 332 340 346 318 315 322 325 327 324 324 330 325 322 325 337 350
215 210 206 203 203 207 214 222 223 206 211 222 247 281 277 226 159 156 171 150 205 221 159 257 256 300 283 292 316 296 268 284 237 320 7 160 138 137 157 182 148 165 184 189 196 221 211 189 203 265 227 13 221 122 89 70 358 334 333 337 339 339 331 333 328 334 338 342 352 334 312 318 319 317 312 308 304 295 309 323 332 332 341 353 355 357 352
209 207 204 200 200 203 212 218 216 224 223 222 257 237 232 230 227 206 157 123 54 284 92 236 286 289 285 343 308 355 25 351 306 334 346 134 147 159 118 148 171 183 186 209 213 235 205 171 216 205 66 45 28 27 46 360 346 338 340 341 344 339 334 331 339 344 344 338 329 307 296 310 308 305 307 322 333 338 344 349 344 347 345 348 350 351 343
202 197 192 189 196 203 211 209 200 181 200 229 261 262 266 239 213 204 194 145 172 217 194 231 218 293 313 317 305 285 5 310 325 45 303 190 158 182 139 150 136 238 178 175 252 226 243 235 149 169 47 11 43 43 16 335 333 340 339 340 346 343 340 339 341 344 338 337 327 323 323 327 331 338 339 337 335 338 343 343 348 349 347 344 342 346 344
192 178 170 173 185 177 142 167 176 158 194 226 221 287 271 288 199 180 181 186 219 189 205 224 191 240 232 290 315 301 339 295 331 285 229 302 289 102 134 150 205 205 106 168 234 172 224 77 231 75 15 66 62 41 354 332 327 331 338 339 345 349 342 335 328 332 333 333 328 328 337 339 340 339 338 336 337 340 343 343 349 349 346 344 339 337 340
164 157 152 141 119 121 211 217 166 187 210 183 232 131 117 102 82 100 126 185 204 205 254 268 248 232 207 275 288 270 348 314 350 317 301 333 316 313 347 240 259 70 197 216 218 190 93 332 65 79 43 57 57 32 357 335 334 335 338 342 343 344 339 338 337 334 332 330 329 342 345 341 338 340 341 339 338 337 344 348 345 344 340 332 329 334 328
148 140 126 108 95 131 263 235 210 196 154 142 153 140 288 357 107 59 83 189 230 197 226 216 246 255 144 220 250 281 336 271 56 327 313 141 307 307 128 287 316 273 285 277 31 42 76 51 87 108 97 92 83 30 355 345 336 339 342 343 343 342 341 341 342 344 346 344 346 342 340 341 341 337 338 334 336 336 335 333 326 333 321 316 322 324 321
138 127 104 120 139 188 199 231 140 147 143 103 127 75 210 14 129 197 203 192 214 215 175 206 244 219 218 231 258 250 244 307 319 52 303 110 4 312 4 335 330 319 283 331 127 60 154 90 126 117 105 45 34 11 357 349 348 356 347 351 346 347 345 344 345 348 348 338 324 319 324 324 327 327 330 328 328 328 327 330 328 328 327 318 327 327 327
132 141 146 146 192 217 186 65 164 147 109 110 17 122 191 151 203 212 92 176 226 233 193 238 228 229 213 222 250 303 142 184 240 316 311 303 137 271 329 242 268 357 277 285 286 354 168 137 112 185 84 25 19 3 356 356 357 357 359 356 353 351 350 346 341 341 343 336 330 322 321 322 324 324 325 329 331 330 333 334 334 333 333 328 327 332 341
132 104 132 180 174 157 200 152 54 36 79 116 142 247 138 199 208 152 154 219 232 227 211 215 177 226 223 225 221 246 145 243 286 58 230 269 306 39 265 276 84 281 278 243 28 77 90 117 112 69 52 30 4 354 355 1 360 357 357 357 353 352 350 349 342 344 347 343 340 335 330 330 330 328 326 329 331 331 330 330 332 339 336 336 337 334 334
147 133 146 121 98 99 118 38 79 102 83 250 175 220 199 230 77 260 196 202 225 195 208 177 212 207 210 190 199 217 255 207 120 183 218 286 266 225 274 320 333 228 258 74 60 74 96 109 126 110 69 40 5 1 358 0 359 355 355 356 356 354 353 350 348 347 351 346 342 339 337 335 334 333 333 332 333 335 335 336 335 341 344 335 331 338 346
111 109 105 103 114 171 126 138 196 175 157 166 139 251 177 198 202 190 201 222 240 207 175 176 300 89 60 144 213 211 244 139 231 189 197 252 332 70 269 331 42 262 251 52 45 54 71 97 86 72 55 25 13 8 3 359 355 356 356 356 360 359 355 350 348 346 347 348 344 342 340 338 337 336 336 334 334 336 339 343 343 337 339 343 340 339 345
105 97 94 39 116 214 185 184 154 131 203 199 178 201 171 211 237 182 219 210 166 208 180 184 187 200 217 184 227 137 190 222 170 239 245 215 332 277 24 252 243 354 79 75 46 68 91 84 70 64 27 14 12 1 355 349 347 345 349 350 349 348 350 348 346 347 346 347 346 345 341 342 339 338 340 341 343 342 341 342 346 345 341 348 349 343 342
116 100 111 134 140 169 146 206 172 199 211 191 195 221 180 204 190 174 186 153 175 153 110 185 136 196 250 110 114 255 260 263 73 217 263 260 263 125 184 276 27 30 32 89 89 162 149 111 85 49 13 9 359 360 351 348 345 343 338 341 350 352 351 350 349 348 347 346 346 345 345 343 342 341 341 342 343 345 347 345 345 346 349 352 356 355 351
137 155 152 148 164 224 197 179 148 212 234 170 200 192 194 232 168 181 192 109 151 133 154 150 154 165 207 135 223 328 77 113 236 219 155 100 117 266 251 91 87 62 53 127 197 161 83 81 60 30 8 2 356 350 346 346 343 341 341 347 349 350 350 349 349 349 347 345 345 346 345 344 343 342 342 343 343 345 349 349 348 347 345 352 358 356 350
111 106 146 137 148 185 175 195 195 204 174 193 194 184 205 190 206 73 118 176 164 146 112 108 128 210 70 39 202 176 88 37 241 263 105 254 225 276 80 293 271 136 175 211 205 137 92 86 52 20 6 4 352 349 347 346 344 342 343 342 345 348 350 351 352 351 350 346 346 347 346 344 343 343 344 345 347 349 350 351 350 351 354 355 354 358 359
140 168 150 164 194 171 188 217 112 72 310 206 148 156 124 99 156 170 183 172 84 155 142 146 143 133 118 106 248 285 343 344 261 265 158 285 352 288 331 22 134 5 247 194 101 61 38 34 24 5 11 356 350 344 343 339 338 338 339 342 344 347 349 350 351 351 349 348 348 348 345 344 344 347 349 349 346 350 353 354 353 354 356 356 360 4 7
136 155 168 199 167 158 179 65 150 193 172 145 167 164 164 159 191 143 139 153 155 111 57 117 137 146 218 54 75 306 233 91 206 267 24 32 190 263 325 269 251 179 92 56 65 51 17 351 7 360 352 347 346 341 337 333 335 336 340 341 343 343 346 347 344 346 347 348 347 347 345 346 348 350 351 352 353 351 353 356 358 0 360 0 0 4 6
122 203 85 125 125 291 120 58 170 201 153 156 159 164 199 160 154 133 164 130 89 127 122 78 75 96 32 215 255 39 239 316 206 349 91 195 194 208 236 252 233 211 125 81 47 351 345 339 337 336 347 337 329 329 329 332 336 335 336 338 340 343 344 344 343 342 343 344 346 345 345 350 353 351 352 352 351 347 352 359 1 1 2 3 4 5 8
311 161 245 182 135 159 149 177 185 180 168 183 169 169 168 165 149 141 218 131 135 99 60 156 54 74 152 46 65 295 172 100 267 269 269 194 136 220 238 261 277 103 95 67 11 330 323 323 318 316 330 337 331 331 332 332 332 332 334 335 339 338 339 342 341 341 340 339 342 347 349 350 349 347 347 350 354 357 2 4 5 5 3 1 3 6 11
137 162 206 171 127 112 107 48 35 175 164 152 150 173 173 153 194 147 225 111 90 144 182 132 135 80 84 193 223 194 32 72 33 28 258 188 184 226 235 253 232 127 132 264 291 316 322 324 321 313 325 327 325 330 332 333 331 332 335 338 337 337 337 339 340 341 341 339 342 345 344 346 346 349 351 354 358 4 8 4 356 357 359 358 356 359 7